N1CTF-6 Weather Reports


Display with metric or nautical units.
time (UTC)temp
F
wind
direction
speed
MPH
gust
MPH
rain 1hr
in
rain 24hr
in
rain mn
in
humidity
%
barometer
mb
20260502233658 45 69 2.0 3.0 0.00 0.00 0.00 47 1017.4
20260502232658 45 56 2.0 2.0 0.00 0.00 0.00 47 1017.6
20260502231658 45 164 2.0 3.0 0.00 0.00 0.00 46 1017.5
20260502225658 45 20 2.0 3.0 0.00 0.00 0.00 46 1017.4
20260502224658 45 178 2.0 4.0 0.00 0.00 0.00 46 1017.5
20260502223658 45 63 2.0 3.0 0.00 0.00 0.00 45 1017.5
20260502222658 45 69 2.0 3.0 0.00 0.00 0.00 44 1017.4
20260502221659 46 32 4.0 6.0 0.00 0.00 0.00 44 1017.5
20260502220658 46 59 2.0 3.0 0.00 0.00 0.00 45 1017.4
20260502215658 46 25 5.0 7.0 0.00 0.00 0.00 45 1017.4
20260502214658 46 48 2.0 3.0 0.00 0.00 0.00 44 1017.3
20260502213658 46 29 2.0 3.0 0.00 0.00 0.00 44 1017.2
20260502212658 46 0 0.0 2.0 0.00 0.00 0.00 44 1017.2
20260502211658 47 6 4.0 4.0 0.00 0.00 0.00 43 1017.0
20260502210658 46 24 2.0 5.0 0.00 0.00 0.00 41 1016.8
20260502205658 46 30 4.0 5.0 0.00 0.00 0.00 41 1017.0
20260502204658 47 54 6.0 6.0 0.00 0.00 0.00 43 1016.7
20260502203658 46 11 3.0 3.0 0.00 0.00 0.00 43 1017.1
20260502202658 47 68 2.0 3.0 0.00 0.00 0.00 40 1016.8
20260502201658 47 42 3.0 3.0 0.00 0.00 0.00 45 1017.0
20260502200658 47 55 2.0 3.0 0.00 0.00 0.00 42 1017.2
20260502195658 46 48 4.0 6.0 0.00 0.00 0.00 44 1017.2
20260502194659 46 32 4.0 5.0 0.00 0.00 0.00 44 1017.3
20260502193658 46 39 4.0 4.0 0.00 0.00 0.00 44 1017.2
20260502192658 47 40 3.0 7.0 0.00 0.00 0.00 43 1017.5
20260502191658 48 9 2.0 4.0 0.00 0.00 0.00 43 1017.3
20260502190658 47 120 2.0 3.0 0.00 0.00 0.00 47 1017.1
20260502185658 46 173 3.0 3.0 0.00 0.00 0.00 43 1017.5
20260502184659 47 16 6.0 6.0 0.00 0.00 0.00 44 1017.6
20260502183658 46 25 4.0 4.0 0.00 0.00 0.00 46 1017.6
20260502182659 46 40 5.0 5.0 0.00 0.00 0.00 48 1017.7
20260502181658 45 66 2.0 3.0 0.00 0.00 0.00 47 1017.7
20260502180658 45 11 6.0 6.0 0.00 0.00 0.00 45 1017.7
20260502163658 45 1 4.0 4.0 0.00 0.00 0.00 48 1017.9
20260502162658 45 68 2.0 5.0 0.00 0.00 0.00 49 1018.2
20260502161658 46 41 4.0 4.0 0.00 0.00 0.00 45 1018.0
20260502160658 45 22 2.0 5.0 0.00 0.00 0.00 51 1018.0
20260502151659 46 58 3.0 4.0 0.00 0.00 0.00 50 1017.9
20260502150658 44 37 4.0 6.0 0.00 0.00 0.00 54 1018.3
20260502130658 40 20 4.0 5.0 0.00 0.00 0.00 72 1018.5
20260502123658 37 34 4.0 6.0 0.00 0.00 0.00 78 1018.4
20260502122658 36 69 2.0 4.0 0.00 0.00 0.00 77 1018.3
20260502121658 35 359 3.0 4.0 0.00 0.00 0.00 79 1018.2
20260502120658 35 34 3.0 3.0 0.00 0.00 0.00 84 1018.2
20260502115658 34 32 1.0 3.0 0.00 0.00 0.00 84 1018.4
20260502114658 33 344 0.0 2.0 0.00 0.00 0.00 85 1018.2
20260502113658 33 6 4.0 4.0 0.00 0.00 0.00 86 1018.3
20260502112658 33 13 2.0 3.0 0.00 0.00 0.00 87 1018.3
20260502111658 32 41 3.0 3.0 0.00 0.00 0.00 89 1017.9
20260502110658 32 75 3.0 3.0 0.00 0.00 0.00 91 1018.2
20260502105658 32 60 2.0 3.0 0.00 0.00 0.00 93 1018.3
20260502104658 31 48 1.0 3.0 0.00 0.00 0.00 94 1018.3
20260502103658 32 48 3.0 3.0 0.00 0.00 0.00 94 1018.3
20260502102658 32 39 0.0 2.0 0.00 0.00 0.00 94 1018.1
20260502101658 32 5 2.0 2.0 0.00 0.00 0.00 95 1018.2
20260502100658 32 53 4.0 5.0 0.00 0.00 0.00 96 1018.0
20260502090658 32 115 3.0 4.0 0.00 0.00 0.00 98 1017.9
20260502070658 33 82 0.0 4.0 0.00 0.00 0.00 98 1017.7
20260502064658 34 127 2.0 3.0 0.00 0.00 0.00 98 1018.0
20260502063703 34 103 0.0 5.0 0.00 0.00 0.00 98 1018.2
20260502062658 35 37 2.0 2.0 0.00 0.00 0.00 98 1018.3
20260502061659 35 54 1.0 1.0 0.00 0.00 0.00 98 1017.6
20260502060658 35 80 1.0 1.0 0.00 0.00 0.00 98 1017.9
20260502055658 36 79 0.0 1.0 0.00 0.00 0.00 98 1017.9
20260502054658 36 34 3.0 3.0 0.00 0.00 0.00 98 1017.9
20260502053658 36 110 0.0 0.0 0.00 0.00 0.00 97 1018.0
20260502052658 36 65 0.0 1.0 0.00 0.00 0.00 97 1017.9
20260502051658 36 136 1.0 1.0 0.00 0.00 0.00 97 1018.0
20260502050658 36 81 0.0 0.0 0.00 0.00 0.00 97 1018.1
20260502045658 36 66 0.0 0.0 0.00 0.00 0.00 97 1017.9
20260502044702 36 64 2.0 2.0 0.00 0.00 0.00 97 1018.2
20260502043658 36 44 2.0 2.0 0.00 0.00 0.00 96 1018.0
20260502042658 36 73 0.0 1.0 0.00 0.00 0.00 96 1018.3
20260502041658 36 56 1.0 2.0 0.00 0.00 0.00 96 1018.2
20260502040659 36 76 1.0 1.0 0.00 0.00 0.00 96 1018.0
20260502035658 37 65 1.0 2.0 0.00 0.00 0.10 96 1018.0
20260502034658 37 61 2.0 2.0 0.00 0.00 0.10 96 1017.9
20260502033658 37 48 2.0 2.0 0.00 0.00 0.10 96 1017.9
20260502032658 37 75 1.0 2.0 0.00 0.00 0.10 96 1018.0
20260502031658 37 53 1.0 2.0 0.00 0.00 0.10 96 1017.7
20260502030659 37 54 1.0 2.0 0.00 0.00 0.10 95 1018.0
20260502024659 38 103 0.0 1.0 0.00 0.00 0.10 95 1017.9
20260502023658 38 89 0.0 0.0 0.00 0.00 0.10 94 1018.1
20260502022658 38 55 0.0 1.0 0.00 0.00 0.10 94 1018.0
20260502021658 39 55 2.0 2.0 0.00 0.00 0.10 93 1017.5
20260502020658 39 60 0.0 0.0 0.00 0.00 0.10 92 1017.5
20260502015659 40 72 1.0 2.0 0.00 0.00 0.10 92 1017.1
20260502014658 40 79 2.0 2.0 0.00 0.00 0.10 91 1017.0
20260502013703 41 69 1.0 2.0 0.00 0.00 0.10 90 1017.0
20260502012658 42 79 1.0 2.0 0.00 0.00 0.10 88 1016.7
20260502011658 42 46 0.0 2.0 0.00 0.00 0.10 87 1016.4
20260502010658 43 68 0.0 2.0 0.00 0.00 0.10 86 1016.0
20260502005703 44 154 2.0 2.0 0.00 0.00 0.10 80 1016.3
20260502004658 46 5 3.0 3.0 0.00 0.00 0.10 75 1015.8
20260502003658 46 30 5.0 5.0 0.00 0.00 0.10 68 1015.3
20260502002659 46 41 3.0 3.0 0.00 0.00 0.10 69 1015.3
20260502001658 47 40 2.0 2.0 0.00 0.00 0.10 67 1015.5
20260502000658 47 66 3.0 3.0 0.00 0.00 0.10 68 1015.4
20260501235658 47 62 2.0 2.0 0.00 0.00 0.10 69 1015.1
20260501234658 47 23 1.0 3.0 0.00 0.00 0.10 69 1015.2